Theta_e
317 317 316 318 317 317 316 316 317 319 320 319 321 320 318 318 317 320 320 319 318 321
318 317 319 317 318 318 317 319 319 320 320 321 321 320 319 320 321 321 320 318 320 322
319 320 320 319 318 318 319 320 320 319 319 320 320 321 324 324 325 324 324 321 323 324
320 321 319 318 318 319 319 320 320 321 320 320 321 321 322 322 324 323 324 323 323 322
321 320 318 318 319 320 320 321 322 322 322 322 321 320 321 323 323 323 323 323 323 323
319 319 317 318 319 320 321 321 322 322 322 322 321 321 322 322 322 323 323 324 323 323
318 319 318 319 320 321 322 321 321 322 323 323 322 322 321 321 321 321 323 324 324 325
318 320 320 320 320 321 322 322 323 323 323 323 323 323 321 321 321 322 322 324 325 325
318 321 320 319 320 320 318 321 325 323 325 324 325 305 312 320 323 323 323 323 323 322
319 320 320 320 319 317 314 316 320 322 322 322 320 305 306 313 324 323 323 323 323 325
320 319 319 319 317 313 311 312 314 317 318 320 316 304 304 310 324 323 323 324 324 323
320 316 316 316 314 311 310 309 311 312 315 317 315 301 302 316 322 321 321 323 323 324
319 316 314 314 313 311 310 310 309 310 313 310 313 300 302 314 319 316 318 319 317 310
317 316 315 314 313 311 310 309 307 307 306 308 311 309 301 306 318 317 315 315 313 311
Wind_Speed
3 2 1 1 1 1 2 2 3 3 3 3 4 5 4 3 3 4 4 6 3 3
2 1 1 1 2 1 2 2 3 3 3 4 4 4 5 3 4 5 4 5 6 5
2 1 1 3 2 2 2 2 4 3 3 4 4 5 7 5 5 6 5 5 9 7
2 3 3 3 1 1 2 3 4 4 5 5 5 5 8 8 8 9 8 8 8 9
4 4 4 4 3 2 4 3 5 5 6 6 6 5 7 9 8 8 7 8 9 9
4 3 4 4 3 3 5 5 5 5 6 7 7 8 8 8 6 6 6 7 8 9
5 4 4 4 3 3 4 5 5 5 5 6 7 8 10 10 6 6 6 6 7 8
5 4 4 5 4 4 5 4 6 7 6 6 6 5 8 10 9 6 7 7 6 7
6 5 5 5 4 5 5 5 6 6 6 6 4 10 10 9 8 7 7 6 8 9
6 6 5 5 4 4 5 5 4 5 5 6 6 11 11 10 5 6 6 7 8 8
6 6 6 6 5 5 3 5 4 4 5 7 5 12 11 10 5 6 6 6 8 9
7 7 6 6 6 3 5 3 3 3 6 7 5 8 9 7 6 6 5 6 5 7
8 8 7 7 7 3 3 5 5 5 5 7 7 7 9 7 5 6 5 5 4 6
8 10 8 7 5 6 5 5 5 6 3 6 6 6 8 9 4 5 5 4 3 3
Wind_Direction
152 198 218 24 27 266 152 172 172 148 134 111 114 137 136 131 122 140 143 159 130 139
142 220 266 347 14 93 119 147 158 156 129 112 117 125 130 111 109 111 100 103 99 98
195 194 61 69 68 101 118 135 164 160 140 105 106 108 122 119 116 116 102 100 105 97
144 94 82 78 33 97 123 144 160 147 130 122 113 110 120 116 129 127 110 103 107 106
139 110 91 78 42 64 90 118 134 127 115 111 107 97 104 113 126 107 109 115 116 116
141 126 96 83 57 62 84 103 99 109 112 110 105 100 101 101 103 97 101 108 121 122
155 149 111 96 83 77 73 103 106 104 106 108 104 108 117 121 111 97 87 92 103 116
138 138 109 99 97 89 75 86 113 108 96 101 109 116 118 121 123 111 104 107 99 107
133 136 118 106 100 92 76 96 105 100 116 113 103 114 106 113 115 114 125 118 109 114
148 144 141 127 104 82 89 90 94 93 105 114 127 122 112 104 102 113 107 119 122 114
158 145 147 138 133 111 93 109 122 116 107 100 115 135 126 125 101 104 101 106 108 121
156 137 149 157 149 129 118 96 98 114 117 121 125 122 130 123 112 108 103 103 103 137
154 146 153 158 151 139 133 125 119 104 114 121 130 152 139 123 115 111 115 106 109 126
159 155 156 148 141 134 128 117 113 109 107 128 149 172 168 143 132 140 138 143 157 180